Year,Month,Day,Hour,Minute,Value (Times are PST for temperature in C)
2013,07,15,00,00,16.40
2013,07,15,00,01,16.40
2013,07,15,00,02,16.40
2013,07,15,00,03,16.40
2013,07,15,00,04,16.30
2013,07,15,00,05,16.30
2013,07,15,00,06,16.30
2013,07,15,00,07,16.30
2013,07,15,00,08,16.30
2013,07,15,00,09,16.30
2013,07,15,00,10,16.30
2013,07,15,00,11,16.30
2013,07,15,00,12,16.30
2013,07,15,00,13,16.30
2013,07,15,00,14,16.20
2013,07,15,00,15,16.20
2013,07,15,00,16,16.20
2013,07,15,00,17,16.20
2013,07,15,00,18,16.20
2013,07,15,00,19,16.20
2013,07,15,00,20,16.20
2013,07,15,00,21,16.20
2013,07,15,00,22,16.20
2013,07,15,00,23,16.20
2013,07,15,00,24,16.10
2013,07,15,00,25,16.10
2013,07,15,00,26,16.10
2013,07,15,00,27,16.10
2013,07,15,00,28,16.20
2013,07,15,00,29,16.20
2013,07,15,00,30,16.20
2013,07,15,00,31,16.20
2013,07,15,00,32,16.20
2013,07,15,00,33,16.20
2013,07,15,00,34,16.20
2013,07,15,00,35,16.20
2013,07,15,00,36,16.20
2013,07,15,00,37,16.20
2013,07,15,00,38,16.20
2013,07,15,00,39,16.20
2013,07,15,00,40,16.20
2013,07,15,00,41,16.30
2013,07,15,00,42,16.30
2013,07,15,00,43,16.30
2013,07,15,00,44,16.30
2013,07,15,00,45,16.30
2013,07,15,00,46,16.40
2013,07,15,00,47,16.40
2013,07,15,00,48,16.40
2013,07,15,00,49,16.40
2013,07,15,00,50,16.30
2013,07,15,00,51,16.30
2013,07,15,00,52,16.30
2013,07,15,00,53,16.30
2013,07,15,00,54,16.30
2013,07,15,00,55,16.30
2013,07,15,00,56,16.20
2013,07,15,00,57,16.20
2013,07,15,00,58,16.20
2013,07,15,00,59,16.20
2013,07,15,01,00,16.10
2013,07,15,01,01,16.10
2013,07,15,01,02,16.10
2013,07,15,01,03,16.10
2013,07,15,01,04,16.10
2013,07,15,01,05,16.10
2013,07,15,01,06,16.00
2013,07,15,01,07,16.00
2013,07,15,01,08,16.10
2013,07,15,01,09,16.10
2013,07,15,01,10,16.10
2013,07,15,01,11,16.10
2013,07,15,01,12,16.10
2013,07,15,01,13,16.10
2013,07,15,01,14,16.20
2013,07,15,01,15,16.20
2013,07,15,01,16,16.20
2013,07,15,01,17,16.20
2013,07,15,01,18,16.20
2013,07,15,01,19,16.20
2013,07,15,01,20,16.20
2013,07,15,01,21,16.20
2013,07,15,01,22,16.20
2013,07,15,01,23,16.20
2013,07,15,01,24,16.20
2013,07,15,01,25,16.30
2013,07,15,01,26,16.30
2013,07,15,01,27,16.30
2013,07,15,01,28,16.30
2013,07,15,01,29,16.30
2013,07,15,01,30,16.30
2013,07,15,01,31,16.40
2013,07,15,01,32,16.40
2013,07,15,01,33,16.40
2013,07,15,01,34,16.40
2013,07,15,01,35,16.40
2013,07,15,01,36,16.40
2013,07,15,01,37,16.40
2013,07,15,01,38,16.40
2013,07,15,01,39,16.40
2013,07,15,01,40,16.40
2013,07,15,01,41,16.50
2013,07,15,01,42,16.50
2013,07,15,01,43,16.60
2013,07,15,01,44,16.60
2013,07,15,01,45,16.60
2013,07,15,01,46,16.60
2013,07,15,01,47,16.60
2013,07,15,01,48,16.60
2013,07,15,01,49,16.60
2013,07,15,01,50,16.70
2013,07,15,01,51,16.70
2013,07,15,01,52,16.70
2013,07,15,01,53,16.70
2013,07,15,01,54,16.70
2013,07,15,01,55,16.70
2013,07,15,01,56,16.70
2013,07,15,01,57,16.70
2013,07,15,01,58,16.70
2013,07,15,01,59,16.70
2013,07,15,02,00,16.70
2013,07,15,02,01,16.70
2013,07,15,02,02,16.70
2013,07,15,02,03,16.60
2013,07,15,02,04,16.60
2013,07,15,02,05,16.50
2013,07,15,02,06,16.50
2013,07,15,02,07,16.50
2013,07,15,02,08,16.50
2013,07,15,02,09,16.50
2013,07,15,02,10,16.50
2013,07,15,02,11,16.60
2013,07,15,02,12,16.60
2013,07,15,02,13,16.60
2013,07,15,02,14,16.60
2013,07,15,02,15,16.60
2013,07,15,02,16,16.60
2013,07,15,02,17,16.70
2013,07,15,02,18,16.70
2013,07,15,02,19,16.70
2013,07,15,02,20,16.60
2013,07,15,02,21,16.60
2013,07,15,02,22,16.60
2013,07,15,02,23,16.50
2013,07,15,02,24,16.50
2013,07,15,02,25,16.50
2013,07,15,02,26,16.50
2013,07,15,02,27,16.40
2013,07,15,02,28,16.40
2013,07,15,02,29,16.40
2013,07,15,02,30,16.40
2013,07,15,02,31,16.40
2013,07,15,02,32,16.40
2013,07,15,02,33,16.40
2013,07,15,02,34,16.30
2013,07,15,02,35,16.30
2013,07,15,02,36,16.40
2013,07,15,02,37,16.40
2013,07,15,02,38,16.30
2013,07,15,02,39,16.30
2013,07,15,02,40,16.30
2013,07,15,02,41,16.30
2013,07,15,02,42,16.30
2013,07,15,02,43,16.30
2013,07,15,02,44,16.30
2013,07,15,02,45,16.30
2013,07,15,02,46,16.30
2013,07,15,02,47,16.40
2013,07,15,02,48,16.40
2013,07,15,02,49,16.40
2013,07,15,02,50,16.40
2013,07,15,02,51,16.40
2013,07,15,02,52,16.30
2013,07,15,02,53,16.30
2013,07,15,02,54,16.30
2013,07,15,02,55,16.40
2013,07,15,02,56,16.30
2013,07,15,02,57,16.30
2013,07,15,02,58,16.30
2013,07,15,02,59,16.40
2013,07,15,03,00,16.40
2013,07,15,03,01,16.40
2013,07,15,03,02,16.40
2013,07,15,03,03,16.40
2013,07,15,03,04,16.40
2013,07,15,03,05,16.40
2013,07,15,03,06,16.40
2013,07,15,03,07,16.40
2013,07,15,03,08,16.40
2013,07,15,03,09,16.40
2013,07,15,03,10,16.40
2013,07,15,03,11,16.40
2013,07,15,03,12,16.30
2013,07,15,03,13,16.30
2013,07,15,03,14,16.30
2013,07,15,03,15,16.30
2013,07,15,03,16,16.30
2013,07,15,03,17,16.30
2013,07,15,03,18,16.30
2013,07,15,03,19,16.30
2013,07,15,03,20,16.30
2013,07,15,03,21,16.30
2013,07,15,03,22,16.30
2013,07,15,03,23,16.30
2013,07,15,03,24,16.30
2013,07,15,03,25,16.30
2013,07,15,03,26,16.30
2013,07,15,03,27,16.30
2013,07,15,03,28,16.20
2013,07,15,03,29,16.20
2013,07,15,03,30,16.20
2013,07,15,03,31,16.20
2013,07,15,03,32,16.20
2013,07,15,03,33,16.20
2013,07,15,03,34,16.20
2013,07,15,03,35,16.10
2013,07,15,03,36,16.10
2013,07,15,03,37,16.10
2013,07,15,03,38,16.10
2013,07,15,03,39,16.10
2013,07,15,03,40,16.10
2013,07,15,03,41,16.10
2013,07,15,03,42,16.10
2013,07,15,03,43,16.10
2013,07,15,03,44,16.20
2013,07,15,03,45,16.20
2013,07,15,03,46,16.20
2013,07,15,03,47,16.20
2013,07,15,03,48,16.10
2013,07,15,03,49,16.10
2013,07,15,03,50,16.10
2013,07,15,03,51,16.00
2013,07,15,03,52,16.00
2013,07,15,03,53,16.00
2013,07,15,03,54,16.00
2013,07,15,03,55,16.00
2013,07,15,03,56,15.90
2013,07,15,03,57,15.90
2013,07,15,03,58,15.90
2013,07,15,03,59,15.90
2013,07,15,04,00,15.90
2013,07,15,04,01,15.80
2013,07,15,04,02,15.80
2013,07,15,04,03,15.80
2013,07,15,04,04,15.80
2013,07,15,04,05,15.80
2013,07,15,04,06,15.80
2013,07,15,04,07,15.70
2013,07,15,04,08,15.70
2013,07,15,04,09,15.70
2013,07,15,04,10,15.70
2013,07,15,04,11,15.70
2013,07,15,04,12,15.70
2013,07,15,04,13,15.70
2013,07,15,04,14,15.70
2013,07,15,04,15,15.70
2013,07,15,04,16,15.70
2013,07,15,04,17,15.70
2013,07,15,04,18,15.70
2013,07,15,04,19,15.70
2013,07,15,04,20,15.70
2013,07,15,04,21,15.70
2013,07,15,04,22,15.70
2013,07,15,04,23,15.70
2013,07,15,04,24,15.70
2013,07,15,04,25,15.70
2013,07,15,04,26,15.70
2013,07,15,04,27,15.70
2013,07,15,04,28,15.70
2013,07,15,04,29,15.70
2013,07,15,04,30,15.70
2013,07,15,04,31,15.70
2013,07,15,04,32,15.70
2013,07,15,04,33,15.70
2013,07,15,04,34,15.70
2013,07,15,04,35,15.70
2013,07,15,04,36,15.80
2013,07,15,04,37,15.80
2013,07,15,04,38,15.80
2013,07,15,04,39,15.80
2013,07,15,04,40,15.80
2013,07,15,04,41,15.80
2013,07,15,04,42,15.80
2013,07,15,04,43,15.80
2013,07,15,04,44,15.80
2013,07,15,04,45,15.80
2013,07,15,04,46,15.80
2013,07,15,04,47,15.70
2013,07,15,04,48,15.70
2013,07,15,04,49,15.70
2013,07,15,04,50,15.70
2013,07,15,04,51,15.70
2013,07,15,04,52,15.70
2013,07,15,04,53,15.70
2013,07,15,04,54,15.80
2013,07,15,04,55,15.80
2013,07,15,04,56,15.80
2013,07,15,04,57,15.80
2013,07,15,04,58,15.80
2013,07,15,04,59,15.80
2013,07,15,05,00,15.80
2013,07,15,05,01,15.80
2013,07,15,05,02,15.80
2013,07,15,05,03,15.80
2013,07,15,05,04,15.80
2013,07,15,05,05,15.80
2013,07,15,05,06,15.80
2013,07,15,05,07,15.70
2013,07,15,05,08,15.80
2013,07,15,05,09,15.80
2013,07,15,05,10,15.70
2013,07,15,05,11,15.70
2013,07,15,05,12,15.70
2013,07,15,05,13,15.70
2013,07,15,05,14,15.70
2013,07,15,05,15,15.60
2013,07,15,05,16,15.60
2013,07,15,05,17,15.60
2013,07,15,05,18,15.60
2013,07,15,05,19,15.60
2013,07,15,05,20,15.60
2013,07,15,05,21,15.60
2013,07,15,05,22,15.60
2013,07,15,05,23,15.50
2013,07,15,05,24,15.50
2013,07,15,05,25,15.40
2013,07,15,05,26,15.40
2013,07,15,05,27,15.40
2013,07,15,05,28,15.40
2013,07,15,05,29,15.40
2013,07,15,05,30,15.40
2013,07,15,05,31,15.30
2013,07,15,05,32,15.30
2013,07,15,05,33,15.30
2013,07,15,05,34,15.30
2013,07,15,05,35,15.40
2013,07,15,05,36,15.40
2013,07,15,05,37,15.50
2013,07,15,05,38,15.50
2013,07,15,05,39,15.50
2013,07,15,05,40,15.60
2013,07,15,05,41,15.60
2013,07,15,05,42,15.60
2013,07,15,05,43,15.60
2013,07,15,05,44,15.60
2013,07,15,05,45,15.60
2013,07,15,05,46,15.50
2013,07,15,05,47,15.50
2013,07,15,05,48,15.40
2013,07,15,05,49,15.40
2013,07,15,05,50,15.40
2013,07,15,05,51,15.40
2013,07,15,05,52,15.30
2013,07,15,05,53,15.30
2013,07,15,05,54,15.40
2013,07,15,05,55,15.30
2013,07,15,05,56,15.30
2013,07,15,05,57,15.30
2013,07,15,05,58,15.30
2013,07,15,05,59,15.30
2013,07,15,06,00,15.30
2013,07,15,06,01,15.30
2013,07,15,06,02,15.30
2013,07,15,06,03,15.30
2013,07,15,06,04,15.30
2013,07,15,06,05,15.20
2013,07,15,06,06,15.20
2013,07,15,06,07,15.20
2013,07,15,06,08,15.20
2013,07,15,06,09,15.20
2013,07,15,06,10,15.20
2013,07,15,06,11,15.20
2013,07,15,06,12,15.20
2013,07,15,06,13,15.20
2013,07,15,06,14,15.30
2013,07,15,06,15,15.30
2013,07,15,06,16,15.30
2013,07,15,06,17,15.30
2013,07,15,06,18,15.30
2013,07,15,06,19,15.20
2013,07,15,06,20,15.20
2013,07,15,06,21,15.20
2013,07,15,06,22,15.20
2013,07,15,06,23,15.20
2013,07,15,06,24,15.20
2013,07,15,06,25,15.20
2013,07,15,06,26,15.20
2013,07,15,06,27,15.20
2013,07,15,06,28,15.20
2013,07,15,06,29,15.10
2013,07,15,06,30,15.10
2013,07,15,06,31,15.10
2013,07,15,06,32,15.10
2013,07,15,06,33,15.10
2013,07,15,06,34,15.00
2013,07,15,06,35,15.00
2013,07,15,06,36,15.00
2013,07,15,06,37,15.00
2013,07,15,06,38,14.90
2013,07,15,06,39,14.90
2013,07,15,06,40,14.90
2013,07,15,06,41,14.90
2013,07,15,06,42,14.90
2013,07,15,06,43,14.90
2013,07,15,06,44,14.90
2013,07,15,06,45,14.90
2013,07,15,06,46,14.90
2013,07,15,06,47,14.90
2013,07,15,06,48,14.90
2013,07,15,06,49,14.90
2013,07,15,06,50,14.90
2013,07,15,06,51,14.90
2013,07,15,06,52,14.90
2013,07,15,06,53,14.90
2013,07,15,06,54,15.00
2013,07,15,06,55,15.00
2013,07,15,06,56,15.00
2013,07,15,06,57,15.00
2013,07,15,06,58,15.00
2013,07,15,06,59,15.10
2013,07,15,07,00,15.10
2013,07,15,07,01,15.10
2013,07,15,07,02,15.10
2013,07,15,07,03,15.10
2013,07,15,07,04,15.10
2013,07,15,07,05,15.10
2013,07,15,07,06,15.00
2013,07,15,07,07,15.00
2013,07,15,07,08,14.90
2013,07,15,07,09,14.90
2013,07,15,07,10,14.90
2013,07,15,07,11,14.90
2013,07,15,07,12,14.90
2013,07,15,07,13,14.90
2013,07,15,07,14,14.90
2013,07,15,07,15,14.90
2013,07,15,07,16,14.80
2013,07,15,07,17,14.80
2013,07,15,07,18,14.80
2013,07,15,07,19,14.80
2013,07,15,07,20,14.80
2013,07,15,07,21,14.80
2013,07,15,07,22,14.80
2013,07,15,07,23,14.80
2013,07,15,07,24,14.80
2013,07,15,07,25,14.80
2013,07,15,07,26,14.80
2013,07,15,07,27,14.80
2013,07,15,07,28,14.80
2013,07,15,07,29,14.80
2013,07,15,07,30,14.80
2013,07,15,07,31,14.80
2013,07,15,07,32,14.90
2013,07,15,07,33,14.90
2013,07,15,07,34,14.90
2013,07,15,07,35,14.90
2013,07,15,07,36,14.90
2013,07,15,07,37,14.90
2013,07,15,07,38,14.90
2013,07,15,07,39,14.90
2013,07,15,07,40,14.90
2013,07,15,07,41,14.90
2013,07,15,07,42,14.90
2013,07,15,07,43,14.90
2013,07,15,07,44,14.80
2013,07,15,07,45,14.80
2013,07,15,07,46,14.80
2013,07,15,07,47,14.80
2013,07,15,07,48,14.80
2013,07,15,07,49,14.80
2013,07,15,07,50,14.70
2013,07,15,07,51,14.70
2013,07,15,07,52,14.70
2013,07,15,07,53,14.70
2013,07,15,07,54,14.60
2013,07,15,07,55,14.60
2013,07,15,07,56,14.60
2013,07,15,07,57,14.60
2013,07,15,07,58,14.70
2013,07,15,07,59,14.70
2013,07,15,08,00,14.70
2013,07,15,08,01,14.70
2013,07,15,08,02,14.80
2013,07,15,08,03,14.80
2013,07,15,08,04,14.80
2013,07,15,08,05,14.80
2013,07,15,08,06,14.80
2013,07,15,08,07,14.80
2013,07,15,08,08,14.90
2013,07,15,08,09,15.00
2013,07,15,08,10,15.00
2013,07,15,08,11,15.10
2013,07,15,08,12,15.10
2013,07,15,08,13,15.20
2013,07,15,08,14,15.20
2013,07,15,08,15,15.30
2013,07,15,08,16,15.30
2013,07,15,08,17,15.40
2013,07,15,08,18,15.40
2013,07,15,08,19,15.50
2013,07,15,08,20,15.50
2013,07,15,08,21,15.50
2013,07,15,08,22,15.60
2013,07,15,08,23,15.60
2013,07,15,08,24,15.60
2013,07,15,08,25,15.60
2013,07,15,08,26,15.60
2013,07,15,08,27,15.60
2013,07,15,08,28,15.70
2013,07,15,08,29,15.70
2013,07,15,08,30,15.70
2013,07,15,08,31,15.70
2013,07,15,08,32,15.80
2013,07,15,08,33,15.80
2013,07,15,08,34,15.80
2013,07,15,08,35,15.80
2013,07,15,08,36,15.80
2013,07,15,08,37,15.80
2013,07,15,08,38,15.70
2013,07,15,08,39,15.70
2013,07,15,08,40,15.80
2013,07,15,08,41,15.80
2013,07,15,08,42,15.90
2013,07,15,08,43,15.90
2013,07,15,08,44,16.00
2013,07,15,08,45,16.10
2013,07,15,08,46,16.10
2013,07,15,08,47,16.10
2013,07,15,08,48,16.20
2013,07,15,08,49,16.20
2013,07,15,08,50,16.20
2013,07,15,08,51,16.20
2013,07,15,08,52,16.20
2013,07,15,08,53,16.10
2013,07,15,08,54,16.20
2013,07,15,08,55,16.20
2013,07,15,08,56,16.20
2013,07,15,08,57,16.20
2013,07,15,08,58,16.20
2013,07,15,08,59,16.20
2013,07,15,09,00,16.30
2013,07,15,09,01,16.30
2013,07,15,09,02,16.40
2013,07,15,09,03,16.40
2013,07,15,09,04,16.40
2013,07,15,09,05,16.40
2013,07,15,09,06,16.50
2013,07,15,09,07,16.50
2013,07,15,09,08,16.50
2013,07,15,09,09,16.60
2013,07,15,09,10,16.70
2013,07,15,09,11,16.70
2013,07,15,09,12,16.80
2013,07,15,09,13,16.80
2013,07,15,09,14,16.90
2013,07,15,09,15,16.90
2013,07,15,09,16,16.90
2013,07,15,09,17,16.90
2013,07,15,09,18,16.90
2013,07,15,09,19,16.90
2013,07,15,09,20,16.90
2013,07,15,09,21,16.80
2013,07,15,09,22,16.80
2013,07,15,09,23,16.80
2013,07,15,09,24,16.80
2013,07,15,09,25,16.90
2013,07,15,09,26,16.90
2013,07,15,09,27,17.00
2013,07,15,09,28,17.00
2013,07,15,09,29,17.10
2013,07,15,09,30,17.10
2013,07,15,09,31,17.10
2013,07,15,09,32,17.20
2013,07,15,09,33,17.20
2013,07,15,09,34,17.30
2013,07,15,09,35,17.30
2013,07,15,09,36,17.40
2013,07,15,09,37,17.50
2013,07,15,09,38,17.50
2013,07,15,09,39,17.60
2013,07,15,09,40,17.60
2013,07,15,09,41,17.60
2013,07,15,09,42,17.60
2013,07,15,09,43,17.60
2013,07,15,09,44,17.70
2013,07,15,09,45,17.70
2013,07,15,09,46,17.80
2013,07,15,09,47,17.80
2013,07,15,09,48,17.80
2013,07,15,09,49,17.80
2013,07,15,09,50,17.80
2013,07,15,09,51,17.80
2013,07,15,09,52,17.80
2013,07,15,09,53,17.90
2013,07,15,09,54,18.00
2013,07,15,09,55,18.00
2013,07,15,09,56,18.10
2013,07,15,09,57,18.10
2013,07,15,09,58,18.20
2013,07,15,09,59,18.30
2013,07,15,10,00,18.30
2013,07,15,10,01,18.40
2013,07,15,10,02,18.50
2013,07,15,10,03,18.50
2013,07,15,10,04,18.60
2013,07,15,10,05,18.70
2013,07,15,10,06,18.80
2013,07,15,10,07,18.90
2013,07,15,10,08,19.00
2013,07,15,10,09,19.00
2013,07,15,10,10,19.10
2013,07,15,10,11,19.10
2013,07,15,10,12,19.20
2013,07,15,10,13,19.20
2013,07,15,10,14,19.30
2013,07,15,10,15,19.30
2013,07,15,10,16,19.30
2013,07,15,10,17,19.40
2013,07,15,10,18,19.40
2013,07,15,10,19,19.50
2013,07,15,10,20,19.60
2013,07,15,10,21,19.60
2013,07,15,10,22,19.70
2013,07,15,10,23,19.70
2013,07,15,10,24,19.70
2013,07,15,10,25,19.70
2013,07,15,10,26,19.80
2013,07,15,10,27,19.80
2013,07,15,10,28,19.80
2013,07,15,10,29,19.80
2013,07,15,10,30,19.90
2013,07,15,10,31,20.00
2013,07,15,10,32,20.00
2013,07,15,10,33,20.10
2013,07,15,10,34,20.10
2013,07,15,10,35,20.20
2013,07,15,10,36,20.20
2013,07,15,10,37,20.20
2013,07,15,10,38,20.30
2013,07,15,10,39,20.30
2013,07,15,10,40,20.40
2013,07,15,10,41,20.40
2013,07,15,10,42,20.50
2013,07,15,10,43,20.50
2013,07,15,10,44,20.60
2013,07,15,10,45,20.60
2013,07,15,10,46,20.70
2013,07,15,10,47,20.70
2013,07,15,10,48,20.80
2013,07,15,10,49,20.90
2013,07,15,10,50,20.90
2013,07,15,10,51,21.00
2013,07,15,10,52,21.00
2013,07,15,10,53,21.10
2013,07,15,10,54,21.10
2013,07,15,10,55,21.20
2013,07,15,10,56,21.20
2013,07,15,10,57,21.30
2013,07,15,10,58,21.40
2013,07,15,10,59,21.40
2013,07,15,11,00,21.50
2013,07,15,11,01,21.50
2013,07,15,11,02,21.60
2013,07,15,11,03,21.60
2013,07,15,11,04,21.70
2013,07,15,11,05,21.70
2013,07,15,11,06,21.70
2013,07,15,11,07,21.80
2013,07,15,11,08,21.80
2013,07,15,11,09,21.80
2013,07,15,11,10,21.90
2013,07,15,11,11,21.90
2013,07,15,11,12,22.00
2013,07,15,11,13,22.10
2013,07,15,11,14,22.10
2013,07,15,11,15,22.10
2013,07,15,11,16,22.20
2013,07,15,11,17,22.20
2013,07,15,11,18,22.30
2013,07,15,11,19,22.30
2013,07,15,11,20,22.30
2013,07,15,11,21,22.40
2013,07,15,11,22,22.40
2013,07,15,11,23,22.40
2013,07,15,11,24,22.50
2013,07,15,11,25,22.50
2013,07,15,11,26,22.60
2013,07,15,11,27,22.70
2013,07,15,11,28,22.80
2013,07,15,11,29,22.80
2013,07,15,11,30,22.90
2013,07,15,11,31,22.90
2013,07,15,11,32,22.90
2013,07,15,11,33,23.00
2013,07,15,11,34,23.00
2013,07,15,11,35,23.10
2013,07,15,11,36,23.20
2013,07,15,11,37,23.30
2013,07,15,11,38,23.30
2013,07,15,11,39,23.40
2013,07,15,11,40,23.40
2013,07,15,11,41,23.40
2013,07,15,11,42,23.40
2013,07,15,11,43,23.50
2013,07,15,11,44,23.50
2013,07,15,11,45,23.60
2013,07,15,11,46,23.60
2013,07,15,11,47,23.60
2013,07,15,11,48,23.60
2013,07,15,11,49,23.60
2013,07,15,11,50,23.70
2013,07,15,11,51,23.70
2013,07,15,11,52,23.80
2013,07,15,11,53,23.90
2013,07,15,11,54,23.80
2013,07,15,11,55,23.80
2013,07,15,11,56,23.80
2013,07,15,11,57,23.90
2013,07,15,11,58,23.90
2013,07,15,11,59,24.00
2013,07,15,12,00,24.10
2013,07,15,12,01,24.10
2013,07,15,12,02,24.10
2013,07,15,12,03,24.20
2013,07,15,12,04,24.20
2013,07,15,12,05,24.30
2013,07,15,12,06,24.40
2013,07,15,12,07,24.40
2013,07,15,12,08,24.50
2013,07,15,12,09,24.60
2013,07,15,12,10,24.70
2013,07,15,12,11,24.90
2013,07,15,12,12,25.00
2013,07,15,12,13,25.10
2013,07,15,12,14,25.10
2013,07,15,12,15,25.20
2013,07,15,12,16,25.30
2013,07,15,12,17,25.40
2013,07,15,12,18,25.40
2013,07,15,12,19,25.50
2013,07,15,12,20,25.50
2013,07,15,12,21,25.50
2013,07,15,12,22,25.60
2013,07,15,12,23,25.70
2013,07,15,12,24,25.70
2013,07,15,12,25,25.70
2013,07,15,12,26,25.70
2013,07,15,12,27,25.70
2013,07,15,12,28,25.80
2013,07,15,12,29,25.80
2013,07,15,12,30,25.80
2013,07,15,12,31,25.90
2013,07,15,12,32,25.80
2013,07,15,12,33,25.80
2013,07,15,12,34,25.80
2013,07,15,12,35,25.90
2013,07,15,12,36,25.90
2013,07,15,12,37,25.90
2013,07,15,12,38,25.90
2013,07,15,12,39,25.90
2013,07,15,12,40,26.00
2013,07,15,12,41,26.00
2013,07,15,12,42,26.10
2013,07,15,12,43,26.20
2013,07,15,12,44,26.20
2013,07,15,12,45,26.30
2013,07,15,12,46,26.30
2013,07,15,12,47,26.30
2013,07,15,12,48,26.30
2013,07,15,12,49,26.30
2013,07,15,12,50,26.40
2013,07,15,12,51,26.30
2013,07,15,12,52,26.40
2013,07,15,12,53,26.40
2013,07,15,12,54,26.50
2013,07,15,12,55,26.40
2013,07,15,12,56,26.40
2013,07,15,12,57,26.50
2013,07,15,12,58,26.50
2013,07,15,12,59,26.60
2013,07,15,13,00,26.60
2013,07,15,13,01,26.70
2013,07,15,13,02,26.80
2013,07,15,13,03,26.80
2013,07,15,13,04,26.70
2013,07,15,13,05,26.70
2013,07,15,13,06,26.70
2013,07,15,13,07,26.80
2013,07,15,13,08,26.90
2013,07,15,13,09,27.00
2013,07,15,13,10,27.00
2013,07,15,13,11,27.00
2013,07,15,13,12,26.90
2013,07,15,13,13,26.90
2013,07,15,13,14,26.90
2013,07,15,13,15,26.90
2013,07,15,13,16,27.00
2013,07,15,13,17,26.90
2013,07,15,13,18,26.70
2013,07,15,13,19,26.60
2013,07,15,13,20,26.40
2013,07,15,13,21,26.10
2013,07,15,13,22,25.90
2013,07,15,13,23,25.70
2013,07,15,13,24,25.60
2013,07,15,13,25,25.60
2013,07,15,13,26,25.50
2013,07,15,13,27,25.50
2013,07,15,13,28,25.40
2013,07,15,13,29,25.40
2013,07,15,13,30,25.40
2013,07,15,13,31,25.40
2013,07,15,13,32,25.40
2013,07,15,13,33,25.30
2013,07,15,13,34,25.30
2013,07,15,13,35,25.20
2013,07,15,13,36,25.30
2013,07,15,13,37,25.30
2013,07,15,13,38,25.20
2013,07,15,13,39,25.20
2013,07,15,13,40,25.20
2013,07,15,13,41,25.10
2013,07,15,13,42,25.10
2013,07,15,13,43,25.10
2013,07,15,13,44,25.00
2013,07,15,13,45,25.10
2013,07,15,13,46,25.00
2013,07,15,13,47,24.90
2013,07,15,13,48,24.90
2013,07,15,13,49,24.80
2013,07,15,13,50,24.80
2013,07,15,13,51,24.70
2013,07,15,13,52,24.70
2013,07,15,13,53,24.60
2013,07,15,13,54,24.50
2013,07,15,13,55,24.40
2013,07,15,13,56,24.30
2013,07,15,13,57,24.20
2013,07,15,13,58,24.20
2013,07,15,13,59,24.20
2013,07,15,14,00,24.20
2013,07,15,14,01,24.30
2013,07,15,14,02,24.40
2013,07,15,14,03,24.40
2013,07,15,14,04,24.40
2013,07,15,14,05,24.40
2013,07,15,14,06,24.40
2013,07,15,14,07,24.40
2013,07,15,14,08,24.60
2013,07,15,14,09,24.90
2013,07,15,14,10,25.20
2013,07,15,14,11,25.40
2013,07,15,14,12,25.70
2013,07,15,14,13,25.90
2013,07,15,14,14,26.10
2013,07,15,14,15,26.20
2013,07,15,14,16,26.30
2013,07,15,14,17,26.30
2013,07,15,14,18,26.30
2013,07,15,14,19,26.30
2013,07,15,14,20,26.20
2013,07,15,14,21,26.20
2013,07,15,14,22,26.20
2013,07,15,14,23,26.30
2013,07,15,14,24,26.30
2013,07,15,14,25,26.20
2013,07,15,14,26,26.30
2013,07,15,14,27,26.30
2013,07,15,14,28,26.40
2013,07,15,14,29,26.50
2013,07,15,14,30,26.50
2013,07,15,14,31,26.40
2013,07,15,14,32,26.40
2013,07,15,14,33,26.40
2013,07,15,14,34,26.40
2013,07,15,14,35,26.50
2013,07,15,14,36,26.50
2013,07,15,14,37,26.40
2013,07,15,14,38,26.40
2013,07,15,14,39,26.30
2013,07,15,14,40,26.30
2013,07,15,14,41,26.20
2013,07,15,14,42,26.20
2013,07,15,14,43,26.20
2013,07,15,14,44,26.20
2013,07,15,14,45,26.20
2013,07,15,14,46,26.30
2013,07,15,14,47,26.30
2013,07,15,14,48,26.30
2013,07,15,14,49,26.30
2013,07,15,14,50,26.30
2013,07,15,14,51,26.30
2013,07,15,14,52,26.30
2013,07,15,14,53,26.30
2013,07,15,14,54,26.30
2013,07,15,14,55,26.30
2013,07,15,14,56,26.30
2013,07,15,14,57,26.20
2013,07,15,14,58,26.20
2013,07,15,14,59,26.30
2013,07,15,15,00,26.30
2013,07,15,15,01,26.30
2013,07,15,15,02,26.30
2013,07,15,15,03,26.30
2013,07,15,15,04,26.30
2013,07,15,15,05,26.20
2013,07,15,15,06,26.20
2013,07,15,15,07,26.10
2013,07,15,15,08,26.10
2013,07,15,15,09,26.10
2013,07,15,15,10,26.20
2013,07,15,15,11,26.20
2013,07,15,15,12,26.30
2013,07,15,15,13,26.30
2013,07,15,15,14,26.30
2013,07,15,15,15,26.30
2013,07,15,15,16,26.30
2013,07,15,15,17,26.30
2013,07,15,15,18,26.40
2013,07,15,15,19,26.40
2013,07,15,15,20,26.40
2013,07,15,15,21,26.40
2013,07,15,15,22,26.40
2013,07,15,15,23,26.50
2013,07,15,15,24,26.50
2013,07,15,15,25,26.50
2013,07,15,15,26,26.50
2013,07,15,15,27,26.50
2013,07,15,15,28,26.50
2013,07,15,15,29,26.50
2013,07,15,15,30,26.40
2013,07,15,15,31,26.40
2013,07,15,15,32,26.40
2013,07,15,15,33,26.40
2013,07,15,15,34,26.30
2013,07,15,15,35,26.30
2013,07,15,15,36,26.20
2013,07,15,15,37,26.20
2013,07,15,15,38,26.30
2013,07,15,15,39,26.30
2013,07,15,15,40,26.30
2013,07,15,15,41,26.30
2013,07,15,15,42,26.30
2013,07,15,15,43,26.30
2013,07,15,15,44,26.30
2013,07,15,15,45,26.30
2013,07,15,15,46,26.30
2013,07,15,15,47,26.30
2013,07,15,15,48,26.30
2013,07,15,15,49,26.20
2013,07,15,15,50,26.20
2013,07,15,15,51,26.20
2013,07,15,15,52,26.20
2013,07,15,15,53,26.20
2013,07,15,15,54,26.30
2013,07,15,15,55,26.30
2013,07,15,15,56,26.30
2013,07,15,15,57,26.30
2013,07,15,15,58,26.30
2013,07,15,15,59,26.30
2013,07,15,16,00,26.30
2013,07,15,16,01,26.30
2013,07,15,16,02,26.30
2013,07,15,16,03,26.30
2013,07,15,16,04,26.30
2013,07,15,16,05,26.30
2013,07,15,16,06,26.20
2013,07,15,16,07,26.20
2013,07,15,16,08,26.20
2013,07,15,16,09,26.10
2013,07,15,16,10,26.10
2013,07,15,16,11,26.10
2013,07,15,16,12,26.10
2013,07,15,16,13,26.10
2013,07,15,16,14,26.00
2013,07,15,16,15,26.10
2013,07,15,16,16,26.10
2013,07,15,16,17,26.10
2013,07,15,16,18,26.10
2013,07,15,16,19,26.20
2013,07,15,16,20,26.20
2013,07,15,16,21,26.20
2013,07,15,16,22,26.10
2013,07,15,16,23,26.10
2013,07,15,16,24,26.10
2013,07,15,16,25,26.10
2013,07,15,16,26,26.10
2013,07,15,16,27,26.10
2013,07,15,16,28,26.10
2013,07,15,16,29,26.10
2013,07,15,16,30,26.10
2013,07,15,16,31,26.10
2013,07,15,16,32,26.10
2013,07,15,16,33,26.10
2013,07,15,16,34,26.10
2013,07,15,16,35,26.10
2013,07,15,16,36,26.10
2013,07,15,16,37,26.10
2013,07,15,16,38,26.10
2013,07,15,16,39,26.10
2013,07,15,16,40,26.00
2013,07,15,16,41,26.00
2013,07,15,16,42,26.00
2013,07,15,16,43,26.00
2013,07,15,16,44,26.00
2013,07,15,16,45,26.00
2013,07,15,16,46,26.10
2013,07,15,16,47,26.00
2013,07,15,16,48,26.00
2013,07,15,16,49,26.00
2013,07,15,16,50,26.00
2013,07,15,16,51,26.00
2013,07,15,16,52,26.00
2013,07,15,16,53,26.00
2013,07,15,16,54,26.00
2013,07,15,16,55,25.90
2013,07,15,16,56,25.90
2013,07,15,16,57,25.90
2013,07,15,16,58,25.90
2013,07,15,16,59,25.90
2013,07,15,17,00,25.80
2013,07,15,17,01,25.80
2013,07,15,17,02,25.80
2013,07,15,17,03,25.80
2013,07,15,17,04,25.80
2013,07,15,17,05,25.80
2013,07,15,17,06,25.90
2013,07,15,17,07,25.90
2013,07,15,17,08,26.00
2013,07,15,17,09,26.00
2013,07,15,17,10,26.00
2013,07,15,17,11,26.00
2013,07,15,17,12,26.10
2013,07,15,17,13,26.10
2013,07,15,17,14,26.00
2013,07,15,17,15,26.00
2013,07,15,17,16,26.00
2013,07,15,17,17,26.10
2013,07,15,17,18,26.10
2013,07,15,17,19,26.10